Location: Beuvrequen
(50.8014°N, 1.6652°E)
Time: 03:58:46
(UTC+00:00)

Cosmos 1300 - Pass Details

Date: 16 October 2021
Orbit: 509 x 512 km, 82.5° (Epoch: 05 December)

Event Time Altitude Azimuth Distance (km) Brightness Sun altitude
Rises 18:30:24 0° 165° (SSE) 2,616 6.1 -15.2°
Reaches altitude 10° 18:32:39 10° 156° (SSE) 1,735 5.1 -15.6°
Enters shadow 18:33:19 14° 151° (SSE) 1,492 4.7 -15.7°
Exits shadow 18:37:36 24° 49° (NE) 1,110 4.0 -16.4°
Drops below altitude 10° 18:39:32 10° 28° (NNE) 1,749 5.2 -16.7°
Sets 18:41:48 0° 18° (NNE) 2,640 6.2 -17.0°
